Content
SEND FEEDBACK

Daily
Averages
Monthly
Summary
United States of America

PYGA BEACH, GUAM


Home > North America > United States > Guam
Elevation: 20 feet     Latitude: 13 17N     Longitude: 144 39E

WEATHER
 
SELECT A DAY
Number of Records: 351,678;   Date Range: 1/1/95 - 10/21/14
 
SHARE

PRINT THIS DATA

[ ← Previous Day ]
WEATHER ALMANAC - MAY 2, 2013
[ Next Day → ]
[ °C ]   °F
Weather ElementAverageHighLow
Temperature77.9 °F80.6 °F (11:08 am)75.2 °F (5:22 am)
Dewpoint75.8 °F77.4 °F (6:55 pm)73.4 °F (5:22 am)
Humidity93.1 %100 % (12:46 am)83 % (10:43 am)
Barometer29.81 in29.89 in (10:25 am)29.75 in (2:55 am)
Wind Speed9.5 mph20.7 mph (5:07 am)
Wind Gust29.9 mph (5:07 am)
Weather ElementAverage
Visibility7.7 mi
Wind DirectionESE (112 °)

Weather ElementTotal
Precipitation1.42 in
Cooling Degree Days12.9 (Base 65)
Growing Degree Days27.9 (Base 50)
Averaged from 184 records on May 2, 2013
WEATHER CONDITIONS BREAKOUT
WIND DIRECTION BREAKOUT
WEATHER BY HOUR - MAY 2, 2013
[ °C ]   °F
Local TimeTemperatureDewpointHumidityBarometerVisibilityWind DirectionWind SpeedGust SpeedPrecipitationEventsConditions
12:02 AM77.0 °F75.2 °F94 %29.80 in10.0 miEast (100°)8.1 mphRainLight Rain
12:04 AM77.0 °F75.2 °F94 %29.80 in10.0 miEast (100°)8.1 mphRainLight Rain
12:08 AM77.0 °F75.2 °F94 %29.80 in10.0 miESE (110°)10.4 mphRainLight Rain
12:16 AM77.0 °F75.2 °F94 %29.80 in9.0 miEast (100°)9.2 mphRainLight Rain
12:17 AM77.0 °F75.2 °F94 %29.80 in9.0 miESE (110°)9.2 mphRainLight Rain
12:39 AM77.0 °F75.2 °F94 %29.80 in9.0 miEast (90°)5.8 mphRainLight Rain
12:41 AM77.0 °F75.2 °F94 %29.79 in9.0 miEast (90°)6.9 mphRainLight Rain
12:46 AM77.0 °F77.0 °F100 %29.79 in9.0 miEast (90°)9.2 mphRainLight Rain
12:55 AM77.0 °F75.7 °F96 %29.79 in10.0 miEast (100°)8.1 mph0.05 inRainLight Rain
1:21 AM77.0 °F77.0 °F100 %29.78 in8.0 miEast (100°)9.2 mphRainLight Rain
1:36 AM77.0 °F77.0 °F100 %29.78 in6.0 miEast (90°)11.5 mphRainLight Rain
1:41 AM77.0 °F77.0 °F100 %29.78 in10.0 miEast (80°)13.8 mphRainLight Rain
1:42 AM77.0 °F77.0 °F100 %29.78 in10.0 miEast (80°)13.8 mphOvercast
1:43 AM77.0 °F77.0 °F100 %29.78 in10.0 miEast (80°)15.0 mphOvercast
1:46 AM77.0 °F77.0 °F100 %29.78 in9.0 miEast (90°)17.3 mphRainLight Rain
1:48 AM77.0 °F75.2 °F94 %29.78 in9.0 miEast (80°)19.6 mph27.6 mphRainLight Rain
1:52 AM77.0 °F75.2 °F94 %29.78 in9.0 miEast (80°)19.6 mph27.6 mphRainLight Rain
1:55 AM76.3 °F74.7 °F95 %29.78 in10.0 miEast (80°)16.1 mph27.6 mph0.07 inMostly Cloudy
1:58 AM77.0 °F75.2 °F94 %29.78 in10.0 miEast (80°)16.1 mph27.6 mphMostly Cloudy
1:59 AM77.0 °F75.2 °F94 %29.78 in10.0 miEast (80°)16.1 mph26.5 mphMostly Cloudy
2:03 AM77.0 °F75.2 °F94 %29.78 in10.0 miEast (90°)17.3 mph24.2 mphOvercast
2:06 AM77.0 °F75.2 °F94 %29.78 in10.0 miEast (90°)16.1 mph24.2 mphMostly Cloudy
2:07 AM77.0 °F75.2 °F94 %29.78 in10.0 miEast (90°)15.0 mph24.2 mphRainLight Rain
2:08 AM77.0 °F75.2 °F94 %29.78 in10.0 miEast (80°)16.1 mph24.2 mphRainLight Rain
2:24 AM77.0 °F75.2 °F94 %29.78 in4.0 miEast (100°)12.7 mphRainLight Rain
2:28 AM77.0 °F75.2 °F94 %29.78 in2.5 miEast (90°)11.5 mphRainRain
2:31 AM77.0 °F75.2 °F94 %29.77 in2.0 miEast (80°)12.7 mphRainHeavy Rain
2:36 AM77.0 °F75.2 °F94 %29.77 in2.5 miENE (70°)11.5 mphRainHeavy Rain
2:37 AM77.0 °F75.2 °F94 %29.77 in2.5 miENE (70°)10.4 mphRainLight Rain
2:38 AM77.0 °F75.2 °F94 %29.77 in3.0 miENE (70°)11.5 mphRainLight Rain
2:41 AM77.0 °F75.2 °F94 %29.77 in5.0 miENE (70°)12.7 mphRainLight Rain
2:43 AM77.0 °F75.2 °F94 %29.77 in7.0 miEast (80°)13.8 mphRainLight Rain
2:55 AM77.2 °F75.9 °F96 %29.75 in8.0 miEast (90°)12.7 mph0.18 inRainLight Rain
3:06 AM77.0 °F75.2 °F94 %29.75 in9.0 miEast (100°)12.7 mphRainLight Rain
3:08 AM77.0 °F75.2 °F94 %29.75 in9.0 miEast (100°)12.7 mphRainLight Rain
3:21 AM77.0 °F75.2 °F94 %29.75 in9.0 miEast (100°)11.5 mphRainLight Rain
3:24 AM77.0 °F75.2 °F94 %29.75 in9.0 miEast (100°)10.4 mphRainLight Rain
3:44 AM77.0 °F77.0 °F100 %29.75 in10.0 miEast (80°)11.5 mphRainLight Rain
3:55 AM77.7 °F76.3 °F95 %29.76 in10.0 miEast (80°)13.8 mph0.04 inRainLight Rain
4:04 AM77.0 °F75.2 °F94 %29.76 in10.0 miEast (80°)12.7 mphRainLight Rain
4:14 AM77.0 °F75.2 °F94 %29.76 in9.0 miEast (90°)10.4 mphRainLight Rain
4:16 AM77.0 °F75.2 °F94 %29.76 in9.0 miEast (80°)10.4 mphRainLight Rain
4:23 AM77.0 °F75.2 °F94 %29.76 in8.0 miEast (90°)11.5 mphRainLight Rain
4:55 AM78.1 °F75.9 °F93 %29.77 in10.0 miESE (110°)12.7 mph0.04 inLight Drizzle
4:58 AM78.8 °F75.2 °F89 %29.78 in10.0 miEast (90°)16.1 mphMostly Cloudy
5:03 AM77.0 °F75.2 °F94 %29.78 in10.0 miEast (90°)17.3 mph24.2 mphMostly Cloudy
5:04 AM77.0 °F75.2 °F94 %29.78 in10.0 miEast (90°)19.6 mph24.2 mphRainLight Rain
5:07 AM77.0 °F75.2 °F94 %29.78 in8.0 miEast (100°)20.7 mph29.9 mphRainLight Rain
5:11 AM77.0 °F75.2 °F94 %29.78 in2.5 miESE (120°)17.3 mph29.9 mphRainLight Rain
5:12 AM77.0 °F75.2 °F94 %29.78 in2.5 miESE (120°)18.4 mph29.9 mphRainHeavy Rain
5:13 AM77.0 °F75.2 °F94 %29.78 in2.0 miESE (120°)18.4 mph29.9 mphRainHeavy Rain
5:14 AM77.0 °F75.2 °F94 %29.78 in1.8 miESE (120°)18.4 mph29.9 mphRainHeavy Rain
5:15 AM77.0 °F75.2 °F94 %29.78 in1.8 miESE (120°)18.4 mph29.9 mphRainHeavy Rain
5:16 AM77.0 °F75.2 °F94 %29.78 in1.5 miESE (110°)18.4 mph29.9 mphRainHeavy Rain
5:17 AM77.0 °F75.2 °F94 %29.78 in1.5 miESE (110°)16.1 mph29.9 mphRainHeavy Rain
5:22 AM75.2 °F73.4 °F94 %29.78 in1.8 miESE (110°)15.0 mphRainHeavy Rain
5:23 AM75.2 °F73.4 °F94 %29.78 in1.8 miESE (120°)13.8 mphRainHeavy Rain
5:24 AM75.2 °F73.4 °F94 %29.78 in2.0 miSE (140°)13.8 mphRainHeavy Rain
5:25 AM75.2 °F73.4 °F94 %29.78 in2.5 miSSE (150°)16.1 mph21.9 mphRainHeavy Rain
5:26 AM75.2 °F73.4 °F94 %29.78 in3.0 miSSE (150°)16.1 mph21.9 mphRainLight Rain
5:29 AM75.2 °F75.2 °F100 %29.78 in4.0 miSSE (150°)15.0 mph21.9 mphRainLight Rain
5:30 AM75.2 °F75.2 °F100 %29.78 in4.0 miSSE (150°)15.0 mph21.9 mphRainLight Rain
5:39 AM75.2 °F75.2 °F100 %29.79 in5.0 miSE (130°)18.4 mphRainRain
5:42 AM75.2 °F75.2 °F100 %29.80 in4.0 miSE (140°)15.0 mph21.9 mphRainRain
5:44 AM75.2 °F73.4 °F94 %29.80 in3.0 miSE (140°)13.8 mphRainRain
5:47 AM75.2 °F75.2 °F100 %29.80 in3.0 miSE (130°)13.8 mphRainRain
5:48 AM75.2 °F75.2 °F100 %29.80 in3.0 miSE (130°)16.1 mphRainRain
5:55 AM75.9 °F74.5 °F95 %29.81 in2.5 miESE (120°)19.6 mph27.6 mph0.38 inRainLight Rain
5:56 AM75.2 °F73.4 °F94 %29.81 in2.0 miESE (120°)18.4 mph27.6 mphRainLight Rain
5:57 AM75.2 °F73.4 °F94 %29.81 in1.5 miESE (110°)15.0 mph27.6 mphRainHeavy Rain
5:58 AM75.2 °F73.4 °F94 %29.81 in1.5 miESE (120°)11.5 mph27.6 mphRainHeavy Rain
5:59 AM75.2 °F73.4 °F94 %29.81 in1.2 miESE (120°)12.7 mph27.6 mphRainHeavy Rain
6:00 AM75.2 °F73.4 °F94 %29.81 in1.2 miSE (130°)15.0 mph27.6 mphRainHeavy Rain
6:01 AM75.2 °F73.4 °F94 %29.81 in1.0 miSE (130°)15.0 mph27.6 mphRainHeavy Rain
6:02 AM75.2 °F73.4 °F94 %29.81 in1.0 miESE (120°)13.8 mph23.0 mphRainHeavy Rain
6:03 AM75.2 °F73.4 °F94 %29.81 in1.0 miESE (120°)13.8 mph23.0 mphRainHeavy Rain
6:05 AM75.2 °F73.4 °F94 %29.81 in1.2 miESE (120°)13.8 mph23.0 mphRainHeavy Rain
6:08 AM75.2 °F73.4 °F94 %29.81 in1.2 miESE (120°)13.8 mph23.0 mphRainHeavy Rain
6:09 AM75.2 °F73.4 °F94 %29.81 in1.5 miESE (120°)12.7 mph23.0 mphRainHeavy Rain
6:10 AM75.2 °F73.4 °F94 %29.81 in1.5 miESE (120°)11.5 mph23.0 mphRainHeavy Rain
6:12 AM75.2 °F73.4 °F94 %29.81 in1.8 miESE (120°)10.4 mphRainHeavy Rain
6:14 AM75.2 °F73.4 °F94 %29.81 in2.0 miESE (120°)9.2 mphRainHeavy Rain
6:16 AM75.2 °F73.4 °F94 %29.81 in2.5 miESE (120°)12.7 mphRainHeavy Rain
6:18 AM75.2 °F73.4 °F94 %29.81 in3.0 miESE (120°)11.5 mphRainRain
6:55 AM76.3 °F75.2 °F96 %29.81 in6.0 miSE (130°)11.5 mph0.44 inRainLight Rain
7:40 AM77.0 °F75.2 °F94 %29.82 in9.0 miESE (110°)6.9 mphRainLight Rain
7:55 AM77.0 °F75.6 °F95 %29.83 in9.0 miEast (90°)6.9 mph0.09 inRainLight Rain
8:55 AM77.7 °F75.7 °F94 %29.86 in10.0 miEast (90°)4.6 mph0.02 inLight Drizzle
8:57 AM77.0 °F75.2 °F94 %29.86 in10.0 miEast (90°)5.8 mphClear
9:06 AM78.8 °F75.2 °F89 %29.86 in10.0 miEast (90°)5.8 mphLight Drizzle
9:24 AM78.8 °F77.0 °F94 %29.87 in10.0 miEast (100°)4.6 mphClear
9:55 AM79.2 °F77.0 °F93 %29.86 in10.0 miEast (80°)4.6 mph0.00 inClear
10:11 AM78.8 °F77.0 °F94 %29.86 in4.0 miEast (80°)6.9 mphRainLight Rain
10:16 AM78.8 °F77.0 °F94 %29.86 in2.5 miESE (110°)4.6 mphRainRain
10:20 AM78.8 °F75.2 °F89 %29.86 in2.5 miESE (110°)8.1 mphRainRain
10:21 AM78.8 °F75.2 °F89 %29.86 in3.0 miESE (110°)9.2 mphRainLight Rain
10:25 AM77.0 °F75.2 °F94 %29.89 in3.0 miEast (100°)5.8 mphRainLight Rain
10:43 AM78.8 °F73.4 °F83 %29.85 in9.0 miEast (100°)4.6 mphMostly Cloudy
10:46 AM78.8 °F75.2 °F89 %29.88 in10.0 miESE (110°)3.5 mphMostly Cloudy
10:47 AM78.8 °F75.2 °F89 %29.85 in10.0 miESE (120°)3.5 mphScattered Clouds
10:48 AM78.8 °F75.2 °F89 %29.88 in10.0 miESE (120°)3.5 mphScattered Clouds
10:55 AM79.5 °F75.9 °F89 %29.85 in10.0 miEast (100°)3.5 mph0.08 inScattered Clouds
11:02 AM78.8 °F75.2 °F89 %29.85 in10.0 miEast (90°)3.5 mphLight Drizzle
11:08 AM80.6 °F77.0 °F89 %29.84 in10.0 miCalmLight Drizzle
11:10 AM80.6 °F77.0 °F89 %29.84 in10.0 miESE (120°)3.5 mphLight Drizzle
11:11 AM80.6 °F77.0 °F89 %29.84 in10.0 miESE (120°)3.5 mphLight Drizzle
11:27 AM80.6 °F77.0 °F89 %29.84 in10.0 miESE (110°)4.6 mphMostly Cloudy
11:29 AM80.6 °F77.0 °F89 %29.83 in10.0 miSE (130°)5.8 mphMostly Cloudy
11:33 AM80.6 °F77.0 °F89 %29.83 in10.0 miSE (130°)4.6 mphMostly Cloudy
11:43 AM80.6 °F77.0 °F89 %29.83 in10.0 miESE (110°)3.5 mphScattered Clouds
11:48 AM80.6 °F77.0 °F89 %29.83 in10.0 miSE (130°)3.5 mphMostly Cloudy
11:55 AM80.2 °F77.2 °F90 %29.83 in10.0 miSSE (150°)4.6 mph0.00 inMostly Cloudy
11:56 AM80.6 °F77.0 °F89 %29.83 in10.0 miSE (140°)3.5 mphMostly Cloudy
12:07 PM80.6 °F77.0 °F89 %29.83 in10.0 miESE (120°)4.6 mphMostly Cloudy
12:08 PM80.6 °F77.0 °F89 %29.82 in10.0 miESE (110°)4.6 mphMostly Cloudy
12:10 PM80.6 °F77.0 °F89 %29.82 in10.0 miESE (120°)4.6 mphMostly Cloudy
12:21 PM80.6 °F77.0 °F89 %29.82 in10.0 miESE (120°)4.6 mphMostly Cloudy
12:25 PM80.6 °F77.0 °F89 %29.82 in10.0 miESE (120°)4.6 mphMostly Cloudy
12:29 PM80.6 °F77.0 °F89 %29.85 in10.0 miESE (110°)5.8 mphMostly Cloudy
12:30 PM80.6 °F77.0 °F89 %29.85 in10.0 miESE (110°)5.8 mphMostly Cloudy
12:32 PM80.6 °F77.0 °F89 %29.82 in10.0 miSE (140°)8.1 mphScattered Clouds
12:40 PM80.6 °F77.0 °F89 %29.82 in10.0 miSE (130°)6.9 mphMostly Cloudy
12:50 PM80.6 °F77.0 °F89 %29.82 in10.0 miCalmMostly Cloudy
12:52 PM78.8 °F75.2 °F89 %29.82 in10.0 miWest (280°)3.5 mphMostly Cloudy
12:55 PM78.4 °F75.6 °F91 %29.82 in10.0 miWNW (290°)4.6 mphMostly Cloudy
12:56 PM78.8 °F75.2 °F89 %29.87 in10.0 miWNW (290°)4.6 mphMostly Cloudy
1:04 PM78.8 °F75.2 °F89 %29.82 in10.0 miWest (270°)4.6 mphMostly Cloudy
1:05 PM78.8 °F75.2 °F89 %29.86 in10.0 miWest (270°)4.6 mphMostly Cloudy
1:16 PM77.0 °F75.2 °F94 %29.82 in10.0 miWNW (300°)6.9 mphOvercast
1:22 PM77.0 °F75.2 °F94 %29.81 in10.0 miNW (310°)5.8 mphOvercast
1:29 PM78.8 °F75.2 °F89 %29.81 in10.0 miCalmOvercast
1:40 PM78.8 °F75.2 °F89 %29.81 in10.0 miWest (260°)6.9 mphOvercast
1:55 PM77.7 °F75.9 °F94 %29.80 in10.0 miWNW (300°)4.6 mphOvercast
2:16 PM78.8 °F75.2 °F89 %29.80 in10.0 miCalmOvercast
2:20 PM78.8 °F75.2 °F89 %29.80 in10.0 miCalmOvercast
2:25 PM78.8 °F75.2 °F89 %29.80 in4.0 miCalmRainLight Rain
2:38 PM78.8 °F77.0 °F94 %29.79 in10.0 miCalmScattered Clouds
2:39 PM78.8 °F77.0 °F94 %29.79 in10.0 miCalmMostly Cloudy
2:40 PM78.8 °F77.0 °F94 %29.79 in10.0 miCalmMostly Cloudy
2:45 PM78.8 °F75.2 °F89 %29.79 in10.0 miCalmScattered Clouds
2:55 PM79.3 °F76.5 °F91 %29.79 in10.0 miEast (100°)5.8 mph0.01 inScattered Clouds
3:16 PM78.8 °F77.0 °F94 %29.79 in10.0 miESE (110°)6.9 mphMostly Cloudy
3:24 PM78.8 °F77.0 °F94 %29.79 in10.0 miESE (120°)6.9 mphMostly Cloudy
3:55 PM79.5 °F76.3 °F90 %29.78 in10.0 miESE (120°)8.1 mphPartly Cloudy
4:55 PM80.2 °F75.7 °F86 %29.78 in10.0 miSE (130°)6.9 mphClear
5:26 PM80.6 °F77.0 °F89 %29.79 in10.0 miESE (120°)6.9 mphMostly Cloudy
5:30 PM80.6 °F77.0 °F89 %29.79 in10.0 miESE (120°)9.2 mphMostly Cloudy
5:41 PM80.6 °F77.0 °F89 %29.80 in10.0 miESE (120°)8.1 mphMostly Cloudy
5:55 PM79.9 °F76.3 °F89 %29.80 in10.0 miESE (120°)8.1 mphScattered Clouds
6:36 PM78.8 °F77.0 °F94 %29.81 in10.0 miENE (70°)3.5 mphMostly Cloudy
6:46 PM78.8 °F77.0 °F94 %29.81 in10.0 miSE (140°)9.2 mphMostly Cloudy
6:47 PM78.8 °F77.0 °F94 %29.81 in10.0 miSE (140°)9.2 mphMostly Cloudy
6:51 PM78.8 °F77.0 °F94 %29.81 in10.0 miSE (130°)10.4 mphMostly Cloudy
6:55 PM79.5 °F77.4 °F93 %29.82 in10.0 miSE (140°)9.2 mphMostly Cloudy
7:00 PM78.8 °F77.0 °F94 %29.82 in10.0 miSE (140°)8.1 mphScattered Clouds
7:25 PM78.8 °F77.0 °F94 %29.82 in10.0 miSE (130°)6.9 mphMostly Cloudy
7:40 PM78.8 °F77.0 °F94 %29.82 in10.0 miESE (120°)5.8 mphMostly Cloudy
7:48 PM78.8 °F77.0 °F94 %29.82 in10.0 miESE (120°)6.9 mphScattered Clouds
7:52 PM78.8 °F77.0 °F94 %29.82 in10.0 miESE (120°)8.1 mphMostly Cloudy
7:55 PM79.2 °F76.6 °F92 %29.82 in10.0 miESE (120°)8.1 mphScattered Clouds
7:58 PM78.8 °F77.0 °F94 %29.81 in10.0 miSE (130°)6.9 mphMostly Cloudy
8:00 PM78.8 °F77.0 °F94 %29.81 in10.0 miESE (120°)6.9 mphMostly Cloudy
8:47 PM78.8 °F77.0 °F94 %29.83 in10.0 miESE (120°)8.1 mphMostly Cloudy
8:55 PM79.3 °F77.2 °F93 %29.83 in10.0 miSE (130°)9.2 mphMostly Cloudy
9:19 PM78.8 °F77.0 °F94 %29.83 in10.0 miESE (120°)8.1 mphMostly Cloudy
9:30 PM78.8 °F77.0 °F94 %29.83 in10.0 miESE (110°)6.9 mphMostly Cloudy
9:32 PM78.8 °F77.0 °F94 %29.83 in10.0 miESE (110°)6.9 mphMostly Cloudy
9:45 PM78.8 °F77.0 °F94 %29.83 in10.0 miEast (100°)6.9 mphMostly Cloudy
9:47 PM78.8 °F77.0 °F94 %29.83 in10.0 miEast (100°)6.9 mphMostly Cloudy
9:51 PM78.8 °F77.0 °F94 %29.83 in10.0 miESE (110°)5.8 mphMostly Cloudy
9:55 PM79.0 °F76.5 °F92 %29.83 in10.0 miESE (110°)5.8 mphMostly Cloudy
10:00 PM78.8 °F77.0 °F94 %29.83 in10.0 miEast (100°)8.1 mphMostly Cloudy
10:04 PM78.8 °F77.0 °F94 %29.83 in10.0 miESE (110°)9.2 mphMostly Cloudy
10:16 PM78.8 °F77.0 °F94 %29.84 in10.0 miESE (110°)8.1 mphMostly Cloudy
10:18 PM78.8 °F77.0 °F94 %29.84 in10.0 miESE (110°)6.9 mphMostly Cloudy
10:44 PM78.8 °F77.0 °F94 %29.85 in6.0 miESE (110°)6.9 mphRainLight Rain
10:55 PM79.0 °F77.2 °F94 %29.85 in6.0 miESE (110°)9.2 mph0.02 inRainLight Rain
10:57 PM78.8 °F77.0 °F94 %29.85 in8.0 miESE (110°)11.5 mphOvercast
11:02 PM78.8 °F77.0 °F94 %29.85 in10.0 miESE (110°)11.5 mphOvercast
11:10 PM78.8 °F77.0 °F94 %29.85 in10.0 miEast (100°)11.5 mphMostly Cloudy
11:12 PM78.8 °F77.0 °F94 %29.85 in10.0 miEast (100°)11.5 mphScattered Clouds
11:36 PM78.8 °F77.0 °F94 %29.85 in10.0 miESE (120°)9.2 mphMostly Cloudy
11:49 PM78.8 °F77.0 °F94 %29.84 in10.0 miESE (120°)8.1 mphMostly Cloudy
11:55 PM79.0 °F76.6 °F92 %29.88 in10.0 miESE (120°)10.4 mph0.00 inMostly Cloudy
Hourly data recorded from PGUA, located miles away from Pyga Beach, Guam







STORIES FROM OUR PARTNERS